Time,TemperatureF,DewpointF,PressureIn,WindDirection,WindDirectionDegrees,WindSpeedMPH,WindSpeedGustMPH,Humidity,HourlyPrecipIn,Conditions,Clouds,dailyrainin,SoftwareType,DateUTC
2013-04-19 00:13:00,72.0,55.4,29.44,SSE,157,9.4,-999.0,56,-99.99,,,0.00,Acu-Link.com,2013-04-19 04:13:00,
2013-04-19 00:29:00,71.6,56.0,29.44,SSW,202,6.8,-999.0,58,-99.99,,,0.00,Acu-Link.com,2013-04-19 04:29:00,
2013-04-19 00:44:00,71.6,56.0,29.43,SE,135,3.2,-999.0,58,-99.99,,,0.00,Acu-Link.com,2013-04-19 04:44:00,
2013-04-19 00:59:00,71.4,56.3,29.42,South,180,4.7,-999.0,59,-99.99,,,0.00,Acu-Link.com,2013-04-19 04:59:00,
2013-04-19 01:14:00,71.6,56.5,29.40,South,180,7.3,-999.0,59,-99.99,,,0.00,Acu-Link.com,2013-04-19 05:14:00,
2013-04-19 01:29:00,71.6,57.0,29.39,SSE,157,5.8,-999.0,60,-99.99,,,0.00,Acu-Link.com,2013-04-19 05:29:00,
2013-04-19 01:44:00,71.6,57.0,29.39,ESE,112,10.9,-999.0,60,-99.99,,,0.00,Acu-Link.com,2013-04-19 05:44:00,
2013-04-19 01:59:00,71.6,57.0,29.35,SSE,157,6.8,-999.0,60,-99.99,,,0.00,Acu-Link.com,2013-04-19 05:59:00,
2013-04-19 02:14:00,71.4,57.2,29.36,South,180,3.7,-999.0,61,-99.99,,,0.00,Acu-Link.com,2013-04-19 06:14:00,
2013-04-19 02:30:00,71.2,57.5,29.36,South,180,6.8,-999.0,62,-99.99,,,0.00,Acu-Link.com,2013-04-19 06:30:00,
2013-04-19 02:45:00,70.9,57.7,29.36,SE,135,5.8,-999.0,63,-99.99,,,0.00,Acu-Link.com,2013-04-19 06:45:00,
2013-04-19 03:00:00,70.9,57.7,29.34,South,180,7.3,-999.0,63,-99.99,,,0.00,Acu-Link.com,2013-04-19 07:00:00,
2013-04-19 03:15:00,71.1,57.9,29.33,SE,135,5.8,-999.0,63,-99.99,,,0.00,Acu-Link.com,2013-04-19 07:15:00,
2013-04-19 03:30:00,69.1,59.3,29.33,SSE,157,7.8,-999.0,71,-99.99,,,0.00,Acu-Link.com,2013-04-19 07:30:00,
2013-04-19 03:45:00,67.3,59.5,29.32,SSE,157,7.3,-999.0,76,-99.99,,,0.01,Acu-Link.com,2013-04-19 07:45:00,
2013-04-19 04:01:00,66.0,60.3,29.31,South,180,5.3,-999.0,82,-99.99,,,0.01,Acu-Link.com,2013-04-19 08:01:00,
2013-04-19 04:16:00,65.5,60.5,29.30,SSE,157,6.8,-999.0,84,-99.99,,,0.05,Acu-Link.com,2013-04-19 08:16:00,
2013-04-19 04:31:00,65.7,60.7,29.29,SSE,157,6.3,-999.0,84,-99.99,,,0.05,Acu-Link.com,2013-04-19 08:31:00,
2013-04-19 04:46:00,65.3,61.0,29.29,SSE,157,5.8,-999.0,86,-99.99,,,0.07,Acu-Link.com,2013-04-19 08:46:00,
2013-04-19 05:01:00,65.3,61.7,29.29,SE,135,8.3,-999.0,88,-99.99,,,0.08,Acu-Link.com,2013-04-19 09:01:00,
2013-04-19 05:16:00,64.6,62.2,29.27,SSW,202,7.3,-999.0,92,-99.99,,,0.11,Acu-Link.com,2013-04-19 09:16:00,
2013-04-19 05:32:00,64.2,63.6,29.25,SSE,157,12.5,-999.0,98,-99.99,,,0.20,Acu-Link.com,2013-04-19 09:32:00,
2013-04-19 05:47:00,64.6,62.8,29.27,SW,225,7.3,-999.0,94,-99.99,,,0.23,Acu-Link.com,2013-04-19 09:47:00,
2013-04-19 06:02:00,55.2,53.2,29.35,West,270,11.9,-999.0,93,-99.99,,,0.28,Acu-Link.com,2013-04-19 10:02:00,
2013-04-19 06:17:00,51.4,50.6,29.36,West,270,9.9,-999.0,97,-99.99,,,0.32,Acu-Link.com,2013-04-19 10:17:00,
2013-04-19 06:33:00,50.0,49.2,29.38,WSW,247,8.9,-999.0,97,-99.99,,,0.39,Acu-Link.com,2013-04-19 10:33:00,
2013-04-19 06:48:00,48.7,48.4,29.40,SW,225,6.3,-999.0,99,-99.99,,,0.44,Acu-Link.com,2013-04-19 10:48:00,
2013-04-19 07:03:00,48.0,47.7,29.41,West,270,7.3,-999.0,99,-99.99,,,0.49,Acu-Link.com,2013-04-19 11:03:00,
2013-04-19 07:18:00,46.4,46.1,29.43,West,270,8.9,-999.0,99,-99.99,,,0.55,Acu-Link.com,2013-04-19 11:18:00,
2013-04-19 07:33:00,45.7,45.4,29.44,West,270,8.3,-999.0,99,-99.99,,,0.63,Acu-Link.com,2013-04-19 11:33:00,
2013-04-19 07:48:00,44.8,44.5,29.46,WSW,247,7.3,-999.0,99,-99.99,,,0.70,Acu-Link.com,2013-04-19 11:48:00,
2013-04-19 08:03:00,44.8,44.5,29.46,West,270,8.3,-999.0,99,-99.99,,,0.72,Acu-Link.com,2013-04-19 12:03:00,
2013-04-19 08:18:00,44.6,44.3,29.48,SSW,202,4.7,-999.0,99,-99.99,,,0.73,Acu-Link.com,2013-04-19 12:18:00,
2013-04-19 08:33:00,44.4,43.9,29.48,WNW,292,6.8,-999.0,98,-99.99,,,0.73,Acu-Link.com,2013-04-19 12:33:00,
2013-04-19 08:49:00,43.9,43.6,29.50,West,270,4.7,-999.0,99,-99.99,,,0.73,Acu-Link.com,2013-04-19 12:49:00,
2013-04-19 09:04:00,43.5,43.2,29.51,SSW,202,5.3,-999.0,99,-99.99,,,0.73,Acu-Link.com,2013-04-19 13:04:00,
2013-04-19 09:19:00,43.2,42.9,29.52,East,90,8.9,-999.0,99,-99.99,,,0.73,Acu-Link.com,2013-04-19 13:19:00,
2013-04-19 09:34:00,42.1,41.8,29.54,WSW,247,10.4,-999.0,99,-99.99,,,0.73,Acu-Link.com,2013-04-19 13:34:00,
2013-04-19 09:49:00,41.7,41.4,29.55,WSW,247,6.3,-999.0,99,-99.99,,,0.73,Acu-Link.com,2013-04-19 13:49:00,
2013-04-19 10:04:00,42.1,41.6,29.56,West,270,5.8,-999.0,98,-99.99,,,0.73,Acu-Link.com,2013-04-19 14:04:00,
2013-04-19 10:19:00,41.7,41.2,29.57,South,180,3.2,-999.0,98,-99.99,,,0.73,Acu-Link.com,2013-04-19 14:19:00,
2013-04-19 10:34:00,41.7,40.6,29.58,SW,225,13.5,-999.0,96,-99.99,,,0.73,Acu-Link.com,2013-04-19 14:34:00,
2013-04-19 10:49:00,42.3,39.9,29.58,SW,225,5.8,-999.0,91,-99.99,,,0.73,Acu-Link.com,2013-04-19 14:49:00,
2013-04-19 11:04:00,43.3,40.3,29.58,NW,315,6.8,-999.0,89,-99.99,,,0.73,Acu-Link.com,2013-04-19 15:04:00,
2013-04-19 11:19:00,43.2,39.3,29.59,West,270,16.6,-999.0,86,-99.99,,,0.73,Acu-Link.com,2013-04-19 15:19:00,
2013-04-19 11:34:00,43.7,38.9,29.59,West,270,7.3,-999.0,83,-99.99,,,0.73,Acu-Link.com,2013-04-19 15:34:00,
2013-04-19 11:49:00,42.6,38.4,29.59,West,270,5.3,-999.0,85,-99.99,,,0.73,Acu-Link.com,2013-04-19 15:49:00,
2013-04-19 12:04:00,43.3,39.1,29.60,West,270,6.8,-999.0,85,-99.99,,,0.73,Acu-Link.com,2013-04-19 16:04:00,
2013-04-19 12:20:00,43.0,38.8,29.61,SSW,202,5.8,-999.0,85,-99.99,,,0.73,Acu-Link.com,2013-04-19 16:20:00,
2013-04-19 12:35:00,43.3,38.2,29.60,SW,225,4.2,-999.0,82,-99.99,,,0.73,Acu-Link.com,2013-04-19 16:35:00,
2013-04-19 12:50:00,42.8,37.4,29.61,WNW,292,13.5,-999.0,81,-99.99,,,0.73,Acu-Link.com,2013-04-19 16:50:00,
2013-04-19 13:05:00,42.3,36.6,29.62,West,270,11.9,-999.0,80,-99.99,,,0.73,Acu-Link.com,2013-04-19 17:05:00,
2013-04-19 13:20:00,45.3,38.2,29.62,SW,225,5.3,-999.0,76,-99.99,,,0.73,Acu-Link.com,2013-04-19 17:20:00,
2013-04-19 13:35:00,43.9,35.8,29.63,WSW,247,9.4,-999.0,73,-99.99,,,0.73,Acu-Link.com,2013-04-19 17:35:00,
2013-04-19 13:50:00,43.2,35.5,29.64,West,270,9.4,-999.0,74,-99.99,,,0.73,Acu-Link.com,2013-04-19 17:50:00,
2013-04-19 14:05:00,43.7,36.6,29.64,SW,225,8.9,-999.0,76,-99.99,,,0.73,Acu-Link.com,2013-04-19 18:05:00,
2013-04-19 14:20:00,43.0,36.3,29.64,NW,315,7.3,-999.0,77,-99.99,,,0.73,Acu-Link.com,2013-04-19 18:20:00,
2013-04-19 14:35:00,43.3,36.3,29.65,West,270,5.3,-999.0,76,-99.99,,,0.73,Acu-Link.com,2013-04-19 18:35:00,
2013-04-19 14:51:00,43.2,35.1,29.64,West,270,7.8,-999.0,73,-99.99,,,0.73,Acu-Link.com,2013-04-19 18:51:00,
2013-04-19 15:06:00,45.9,36.7,29.64,West,270,7.3,-999.0,70,-99.99,,,0.73,Acu-Link.com,2013-04-19 19:06:00,
2013-04-19 15:21:00,46.4,35.7,29.64,West,270,9.4,-999.0,66,-99.99,,,0.73,Acu-Link.com,2013-04-19 19:21:00,
2013-04-19 15:36:00,46.6,34.3,29.64,WSW,247,4.2,-999.0,62,-99.99,,,0.73,Acu-Link.com,2013-04-19 19:36:00,
2013-04-19 15:51:00,46.4,34.9,29.65,NNE,22,6.3,-999.0,64,-99.99,,,0.73,Acu-Link.com,2013-04-19 19:51:00,
2013-04-19 16:06:00,46.8,35.3,29.65,West,270,8.9,-999.0,64,-99.99,,,0.73,Acu-Link.com,2013-04-19 20:06:00,
2013-04-19 16:21:00,46.8,34.9,29.64,North,0,5.8,-999.0,63,-99.99,,,0.73,Acu-Link.com,2013-04-19 20:21:00,
2013-04-19 16:36:00,46.2,34.7,29.65,NW,315,5.3,-999.0,64,-99.99,,,0.73,Acu-Link.com,2013-04-19 20:36:00,
2013-04-19 16:51:00,45.9,34.0,29.65,WSW,247,6.3,-999.0,63,-99.99,,,0.73,Acu-Link.com,2013-04-19 20:51:00,
2013-04-19 17:06:00,45.7,34.6,29.65,West,270,10.9,-999.0,65,-99.99,,,0.73,Acu-Link.com,2013-04-19 21:06:00,
2013-04-19 17:21:00,45.7,34.6,29.67,WNW,292,6.3,-999.0,65,-99.99,,,0.73,Acu-Link.com,2013-04-19 21:21:00,
2013-04-19 17:36:00,45.3,34.2,29.67,SSW,202,4.7,-999.0,65,-99.99,,,0.73,Acu-Link.com,2013-04-19 21:36:00,
2013-04-19 17:51:00,45.1,34.8,29.68,West,270,4.7,-999.0,67,-99.99,,,0.73,Acu-Link.com,2013-04-19 21:51:00,
2013-04-19 18:07:00,44.6,34.3,29.68,West,270,4.7,-999.0,67,-99.99,,,0.73,Acu-Link.com,2013-04-19 22:07:00,
2013-04-19 18:22:00,44.6,34.7,29.69,WNW,292,4.2,-999.0,68,-99.99,,,0.73,Acu-Link.com,2013-04-19 22:22:00,
2013-04-19 18:37:00,45.0,34.7,29.70,West,270,5.3,-999.0,67,-99.99,,,0.73,Acu-Link.com,2013-04-19 22:37:00,
2013-04-19 18:52:00,45.0,34.7,29.71,West,270,3.7,-999.0,67,-99.99,,,0.73,Acu-Link.com,2013-04-19 22:52:00,
2013-04-19 19:07:00,44.8,33.8,29.71,WSW,247,4.7,-999.0,65,-99.99,,,0.73,Acu-Link.com,2013-04-19 23:07:00,
2013-04-19 19:22:00,44.6,34.0,29.71,WNW,292,4.7,-999.0,66,-99.99,,,0.73,Acu-Link.com,2013-04-19 23:22:00,
2013-04-19 19:38:00,44.4,33.8,29.72,South,180,4.7,-999.0,66,-99.99,,,0.73,Acu-Link.com,2013-04-19 23:38:00,
2013-04-19 19:53:00,43.9,33.3,29.72,West,270,3.7,-999.0,66,-99.99,,,0.73,Acu-Link.com,2013-04-19 23:53:00,
2013-04-19 20:08:00,43.7,33.8,29.73,West,270,5.3,-999.0,68,-99.99,,,0.73,Acu-Link.com,2013-04-20 00:08:00,
2013-04-19 20:23:00,43.5,33.7,29.74,WSW,247,3.7,-999.0,68,-99.99,,,0.73,Acu-Link.com,2013-04-20 00:23:00,
2013-04-19 20:38:00,43.5,34.0,29.75,West,270,4.7,-999.0,69,-99.99,,,0.73,Acu-Link.com,2013-04-20 00:38:00,
2013-04-19 20:53:00,43.3,34.5,29.76,SSW,202,5.3,-999.0,71,-99.99,,,0.73,Acu-Link.com,2013-04-20 00:53:00,
2013-04-19 21:09:00,43.2,33.7,29.76,West,270,4.2,-999.0,69,-99.99,,,0.73,Acu-Link.com,2013-04-20 01:09:00,
2013-04-19 21:24:00,43.0,33.2,29.77,SW,225,3.7,-999.0,68,-99.99,,,0.73,Acu-Link.com,2013-04-20 01:24:00,
2013-04-19 21:39:00,42.8,33.0,29.78,West,270,4.7,-999.0,68,-99.99,,,0.73,Acu-Link.com,2013-04-20 01:39:00,
2013-04-19 21:54:00,42.6,33.2,29.79,WNW,292,5.8,-999.0,69,-99.99,,,0.73,Acu-Link.com,2013-04-20 01:54:00,
2013-04-19 22:09:00,42.6,33.2,29.80,SW,225,4.7,-999.0,69,-99.99,,,0.73,Acu-Link.com,2013-04-20 02:09:00,
2013-04-19 22:25:00,42.3,33.2,29.80,WNW,292,4.7,-999.0,70,-99.99,,,0.73,Acu-Link.com,2013-04-20 02:25:00,
2013-04-19 22:40:00,42.1,33.0,29.81,West,270,5.8,-999.0,70,-99.99,,,0.73,Acu-Link.com,2013-04-20 02:40:00,
2013-04-19 22:55:00,41.2,32.9,29.81,SW,225,2.2,-999.0,72,-99.99,,,0.73,Acu-Link.com,2013-04-20 02:55:00,
2013-04-19 23:10:00,40.8,32.8,29.82,WSW,247,2.2,-999.0,73,-99.99,,,0.73,Acu-Link.com,2013-04-20 03:10:00,
2013-04-19 23:25:00,40.3,33.0,29.82,WNW,292,4.2,-999.0,75,-99.99,,,0.73,Acu-Link.com,2013-04-20 03:25:00,
2013-04-19 23:41:00,40.3,33.0,29.82,West,270,5.8,-999.0,75,-99.99,,,0.73,Acu-Link.com,2013-04-20 03:41:00,
2013-04-19 23:56:00,39.7,32.8,29.83,SSW,202,3.7,-999.0,76,-99.99,,,0.73,Acu-Link.com,2013-04-20 03:56:00,